Home > Weather > Wageningen > Past weeks

Flag for Netherlands Past Weather in Wageningen, Netherlands — Yesterday and Last 2 Weeks

Now
61 °F

Overcast.


Feels Like: 61 °F
Forecast: 58 / 68 °F
Wind: 5 mph from West

Location: Deelen

Current Time: Jul 29, 2016 at 2:20:25 AM

Latest Report: Jul 29, 2016 at 1:55 AM


Visibility: N/A

Pressure: 29.92 "Hg

Humidity: 88%

Dew Point: 57 °F

Location of WageningenLocation

Past Weather in Wageningen — Graph

°F

Wageningen Temperature Yesterday

Maximum temperature yesterday: 75 °F (at 5:25 PM)
Minimum temperature yesterday: 61 °F (at 2:25 AM)
Average temperature yesterday: 66 °F

High & Low Weather Summary for the Past Weeks

 TemperatureHumidityPressure
High91 °F (Jul 20, 2:55 PM)100% (Jul 14, 2:55 AM)30.27 "Hg (Jul 14, 2:55 AM)
Low43 °F (Jul 14, 4:55 AM)32% (Jul 20, 3:55 PM)29.83 "Hg (Jul 20, 3:55 PM)
Average67 °F77%30.08 "Hg
* Reported Jul 14 12:25 AM — Jul 29 12:55 AM, Wageningen, Weather by CustomWeather, © 2016

Note: Actual official high and low records may vary slightly from our data, if they occured in-between our weather recording intervals... More about our weather records

Advertising

Wageningen Weather History for the Previous 24 Hours

Scroll right to see more
 ConditionsComfort  
Time TempWeatherWind HumidityBarometerVisibility
12:55 AM
Fri, Jul 29
61 °FFog.5 mph94%29.92 "Hg5 mi
12:25 AM63 °FSprinkles. Partly cloudy.5 mph88%29.92 "Hg5 mi
11:55 PM
Thu, Jul 28
63 °FPartly cloudy.5 mph83%29.92 "HgN/A
11:25 PM63 °FPassing clouds.3 mph83%29.92 "HgN/A
10:55 PM63 °FOvercast.3 mph83%29.92 "HgN/A
10:25 PM63 °FMostly cloudy.5 mph83%29.92 "Hg4 mi
9:55 PM66 °FPartly sunny.5 mph73%29.92 "HgN/A
9:25 PM66 °FBroken clouds.12 mph73%29.92 "HgN/A
8:55 PM68 °FOvercast.7 mph73%29.92 "HgN/A
8:25 PM70 °FOvercast.7 mph69%29.92 "HgN/A
7:55 PM70 °FPartly sunny.8 mph69%29.89 "HgN/A
7:25 PM70 °FPassing clouds.10 mph69%29.89 "HgN/A
6:55 PM73 °FBroken clouds.12 mph61%29.89 "HgN/A
6:25 PM72 °FMild.9 mph69%29.89 "HgN/A
5:55 PM73 °FPartly sunny.12 mph61%29.89 "HgN/A
5:25 PM75 °FBroken clouds.10 mph57%29.92 "HgN/A
4:55 PM73 °FPartly sunny.12 mph65%29.92 "HgN/A
4:25 PM73 °FOvercast.9 mph69%29.92 "HgN/A
3:55 PM72 °FBroken clouds.13 mph69%29.92 "HgN/A
3:25 PM72 °FBroken clouds.10 mph73%29.92 "HgN/A
2:55 PM73 °FBroken clouds.10 mph69%29.92 "HgN/A
2:25 PM72 °FBroken clouds.9 mph73%29.92 "Hg6 mi
1:55 PM70 °FBroken clouds.12 mph78%29.95 "HgN/A
1:25 PM68 °FBroken clouds.10 mph83%29.95 "HgN/A
12:55 PM68 °FScattered clouds.9 mph83%29.95 "HgN/A
12:25 PM70 °FLight rain. Mostly cloudy.9 mph83%29.95 "HgN/A
11:55 AM68 °FPartly sunny.7 mph88%29.95 "HgN/A
11:25 AM68 °FBroken clouds.5 mph83%29.95 "HgN/A
10:55 AM68 °FFog.3 mph88%29.95 "Hg4 mi
10:25 AM66 °FFog.3 mph88%29.95 "Hg4 mi
9:55 AM64 °FDrizzle. Broken clouds.5 mph94%29.95 "Hg2 mi
9:25 AM64 °FFog.3 mph94%29.95 "Hg3 mi
8:55 AM64 °FFog.3 mph94%29.95 "Hg3 mi
8:25 AM63 °FFog.2 mph100%29.98 "Hg3 mi
7:55 AM63 °FFog.1 mph94%29.98 "Hg3 mi
7:25 AM63 °FFog.2 mph94%29.98 "Hg4 mi
6:55 AM63 °FFog.1 mph94%29.98 "Hg4 mi
6:25 AM61 °FFog.3 mph100%29.98 "Hg4 mi
5:55 AM61 °FFog.3 mph100%29.98 "Hg4 mi
5:25 AM61 °FFog.2 mph100%29.98 "Hg4 mi
4:55 AM61 °FFog.2 mph100%29.98 "Hg3 mi
4:25 AM61 °FFog.2 mph100%29.98 "Hg2 mi
3:55 AM61 °FFog.2 mph94%29.98 "Hg0 mi
3:25 AM61 °FFog.1 mph100%29.98 "Hg0 mi
2:55 AM61 °FFog.2 mph94%30.01 "Hg0 mi
2:25 AM61 °FFog.No wind100%30.01 "Hg4 mi
Weather by CustomWeather, © 2016

See weather overviewHow to use our weather pages